Year,Month,Day,Hour,Minute,Value (Times are PST for temperature in C)
2015,01,26,00,00,4.40
2015,01,26,00,01,4.40
2015,01,26,00,02,4.40
2015,01,26,00,03,4.40
2015,01,26,00,04,4.40
2015,01,26,00,05,4.40
2015,01,26,00,06,4.40
2015,01,26,00,07,4.40
2015,01,26,00,08,4.50
2015,01,26,00,09,4.50
2015,01,26,00,10,4.50
2015,01,26,00,11,4.50
2015,01,26,00,12,4.50
2015,01,26,00,13,4.50
2015,01,26,00,14,4.50
2015,01,26,00,15,4.50
2015,01,26,00,16,4.60
2015,01,26,00,17,4.60
2015,01,26,00,18,4.60
2015,01,26,00,19,4.60
2015,01,26,00,20,4.60
2015,01,26,00,21,4.60
2015,01,26,00,22,4.60
2015,01,26,00,23,4.60
2015,01,26,00,24,4.60
2015,01,26,00,25,4.60
2015,01,26,00,26,4.60
2015,01,26,00,27,4.70
2015,01,26,00,28,4.70
2015,01,26,00,29,4.70
2015,01,26,00,30,4.70
2015,01,26,00,31,4.70
2015,01,26,00,32,4.70
2015,01,26,00,33,4.70
2015,01,26,00,34,4.70
2015,01,26,00,35,4.70
2015,01,26,00,36,4.70
2015,01,26,00,37,4.70
2015,01,26,00,38,4.70
2015,01,26,00,39,4.70
2015,01,26,00,40,4.70
2015,01,26,00,41,4.70
2015,01,26,00,42,4.70
2015,01,26,00,43,4.70
2015,01,26,00,44,4.70
2015,01,26,00,45,4.70
2015,01,26,00,46,4.70
2015,01,26,00,47,4.70
2015,01,26,00,48,4.70
2015,01,26,00,49,4.70
2015,01,26,00,50,4.70
2015,01,26,00,51,4.70
2015,01,26,00,52,4.70
2015,01,26,00,53,4.70
2015,01,26,00,54,4.70
2015,01,26,00,55,4.70
2015,01,26,00,56,4.70
2015,01,26,00,57,4.70
2015,01,26,00,58,4.70
2015,01,26,00,59,4.70
2015,01,26,01,00,4.70
2015,01,26,01,01,4.70
2015,01,26,01,02,4.70
2015,01,26,01,03,4.70
2015,01,26,01,04,4.70
2015,01,26,01,05,4.70
2015,01,26,01,06,4.70
2015,01,26,01,07,4.80
2015,01,26,01,08,4.80
2015,01,26,01,09,4.80
2015,01,26,01,10,4.80
2015,01,26,01,11,4.80
2015,01,26,01,12,4.80
2015,01,26,01,13,4.80
2015,01,26,01,14,4.80
2015,01,26,01,15,4.80
2015,01,26,01,16,4.80
2015,01,26,01,17,4.80
2015,01,26,01,18,4.80
2015,01,26,01,19,4.80
2015,01,26,01,20,4.80
2015,01,26,01,21,4.80
2015,01,26,01,22,4.80
2015,01,26,01,23,4.80
2015,01,26,01,24,4.80
2015,01,26,01,25,4.80
2015,01,26,01,26,4.80
2015,01,26,01,27,4.90
2015,01,26,01,28,4.90
2015,01,26,01,29,4.90
2015,01,26,01,30,4.90
2015,01,26,01,31,4.90
2015,01,26,01,32,4.90
2015,01,26,01,33,4.90
2015,01,26,01,34,4.90
2015,01,26,01,35,4.90
2015,01,26,01,36,4.90
2015,01,26,01,37,4.90
2015,01,26,01,38,4.90
2015,01,26,01,39,4.90
2015,01,26,01,40,4.90
2015,01,26,01,41,4.90
2015,01,26,01,42,4.90
2015,01,26,01,43,4.90
2015,01,26,01,44,4.90
2015,01,26,01,45,4.90
2015,01,26,01,46,4.90
2015,01,26,01,47,4.90
2015,01,26,01,48,4.90
2015,01,26,01,49,4.90
2015,01,26,01,50,4.90
2015,01,26,01,51,4.90
2015,01,26,01,52,4.90
2015,01,26,01,53,4.90
2015,01,26,01,54,4.90
2015,01,26,01,55,4.90
2015,01,26,01,56,4.90
2015,01,26,01,57,4.90
2015,01,26,01,58,4.90
2015,01,26,01,59,4.90
2015,01,26,02,00,4.90
2015,01,26,02,01,4.90
2015,01,26,02,02,4.80
2015,01,26,02,03,4.80
2015,01,26,02,04,4.80
2015,01,26,02,05,4.80
2015,01,26,02,06,4.80
2015,01,26,02,07,4.80
2015,01,26,02,08,4.80
2015,01,26,02,09,4.80
2015,01,26,02,10,4.80
2015,01,26,02,11,4.80
2015,01,26,02,12,4.80
2015,01,26,02,13,4.80
2015,01,26,02,14,4.80
2015,01,26,02,15,4.80
2015,01,26,02,16,4.80
2015,01,26,02,17,4.80
2015,01,26,02,18,4.80
2015,01,26,02,19,4.80
2015,01,26,02,20,4.70
2015,01,26,02,21,4.70
2015,01,26,02,22,4.70
2015,01,26,02,23,4.70
2015,01,26,02,24,4.70
2015,01,26,02,25,4.70
2015,01,26,02,26,4.70
2015,01,26,02,27,4.70
2015,01,26,02,28,4.70
2015,01,26,02,29,4.70
2015,01,26,02,30,4.70
2015,01,26,02,31,4.70
2015,01,26,02,32,4.70
2015,01,26,02,33,4.70
2015,01,26,02,34,4.70
2015,01,26,02,35,4.70
2015,01,26,02,36,4.70
2015,01,26,02,37,4.70
2015,01,26,02,38,4.70
2015,01,26,02,39,4.70
2015,01,26,02,40,4.70
2015,01,26,02,41,4.70
2015,01,26,02,42,4.70
2015,01,26,02,43,4.70
2015,01,26,02,44,4.70
2015,01,26,02,45,4.70
2015,01,26,02,46,4.70
2015,01,26,02,47,4.70
2015,01,26,02,48,4.70
2015,01,26,02,49,4.70
2015,01,26,02,50,4.70
2015,01,26,02,51,4.70
2015,01,26,02,52,4.60
2015,01,26,02,53,4.60
2015,01,26,02,54,4.60
2015,01,26,02,55,4.60
2015,01,26,02,56,4.60
2015,01,26,02,57,4.60
2015,01,26,02,58,4.60
2015,01,26,02,59,4.60
2015,01,26,03,00,4.60
2015,01,26,03,01,4.60
2015,01,26,03,02,4.60
2015,01,26,03,03,4.60
2015,01,26,03,04,4.60
2015,01,26,03,05,4.60
2015,01,26,03,06,4.60
2015,01,26,03,07,4.60
2015,01,26,03,08,4.60
2015,01,26,03,09,4.60
2015,01,26,03,10,4.60
2015,01,26,03,11,4.60
2015,01,26,03,12,4.50
2015,01,26,03,13,4.50
2015,01,26,03,14,4.50
2015,01,26,03,15,4.50
2015,01,26,03,16,4.50
2015,01,26,03,17,4.40
2015,01,26,03,18,4.40
2015,01,26,03,19,4.40
2015,01,26,03,20,4.40
2015,01,26,03,21,4.40
2015,01,26,03,22,4.40
2015,01,26,03,23,4.40
2015,01,26,03,24,4.40
2015,01,26,03,25,4.30
2015,01,26,03,26,4.30
2015,01,26,03,27,4.30
2015,01,26,03,28,4.30
2015,01,26,03,29,4.30
2015,01,26,03,30,4.30
2015,01,26,03,31,4.30
2015,01,26,03,32,4.30
2015,01,26,03,33,4.30
2015,01,26,03,34,4.30
2015,01,26,03,35,4.30
2015,01,26,03,36,4.20
2015,01,26,03,37,4.20
2015,01,26,03,38,4.20
2015,01,26,03,39,4.20
2015,01,26,03,40,4.20
2015,01,26,03,41,4.10
2015,01,26,03,42,4.10
2015,01,26,03,43,4.10
2015,01,26,03,44,4.10
2015,01,26,03,45,4.10
2015,01,26,03,46,4.10
2015,01,26,03,47,4.10
2015,01,26,03,48,4.10
2015,01,26,03,49,4.10
2015,01,26,03,50,4.10
2015,01,26,03,51,4.10
2015,01,26,03,52,4.10
2015,01,26,03,53,4.10
2015,01,26,03,54,4.10
2015,01,26,03,55,4.10
2015,01,26,03,56,4.10
2015,01,26,03,57,4.00
2015,01,26,03,58,4.00
2015,01,26,03,59,4.00
2015,01,26,04,00,4.00
2015,01,26,04,01,3.90
2015,01,26,04,02,3.90
2015,01,26,04,03,3.90
2015,01,26,04,04,3.90
2015,01,26,04,05,3.80
2015,01,26,04,06,3.80
2015,01,26,04,07,3.80
2015,01,26,04,08,3.80
2015,01,26,04,09,3.80
2015,01,26,04,10,3.80
2015,01,26,04,11,3.80
2015,01,26,04,12,3.80
2015,01,26,04,13,3.80
2015,01,26,04,14,3.70
2015,01,26,04,15,3.70
2015,01,26,04,16,3.70
2015,01,26,04,17,3.70
2015,01,26,04,18,3.70
2015,01,26,04,19,3.70
2015,01,26,04,20,3.70
2015,01,26,04,21,3.70
2015,01,26,04,22,3.70
2015,01,26,04,23,3.70
2015,01,26,04,24,3.70
2015,01,26,04,25,3.70
2015,01,26,04,26,3.70
2015,01,26,04,27,3.70
2015,01,26,04,28,3.70
2015,01,26,04,29,3.70
2015,01,26,04,30,3.70
2015,01,26,04,31,3.70
2015,01,26,04,32,3.70
2015,01,26,04,33,3.70
2015,01,26,04,34,3.70
2015,01,26,04,35,3.70
2015,01,26,04,36,3.70
2015,01,26,04,37,3.70
2015,01,26,04,38,3.60
2015,01,26,04,39,3.60
2015,01,26,04,40,3.60
2015,01,26,04,41,3.60
2015,01,26,04,42,3.60
2015,01,26,04,43,3.60
2015,01,26,04,44,3.50
2015,01,26,04,45,3.50
2015,01,26,04,46,3.50
2015,01,26,04,47,3.50
2015,01,26,04,48,3.50
2015,01,26,04,49,3.50
2015,01,26,04,50,3.50
2015,01,26,04,51,3.50
2015,01,26,04,52,3.50
2015,01,26,04,53,3.50
2015,01,26,04,54,3.50
2015,01,26,04,55,3.50
2015,01,26,04,56,3.50
2015,01,26,04,57,3.50
2015,01,26,04,58,3.50
2015,01,26,04,59,3.50
2015,01,26,05,00,3.50
2015,01,26,05,01,3.50
2015,01,26,05,02,3.50
2015,01,26,05,03,3.50
2015,01,26,05,04,3.50
2015,01,26,05,05,3.50
2015,01,26,05,06,3.50
2015,01,26,05,07,3.50
2015,01,26,05,08,3.50
2015,01,26,05,09,3.50
2015,01,26,05,10,3.50
2015,01,26,05,11,3.50
2015,01,26,05,12,3.40
2015,01,26,05,13,3.40
2015,01,26,05,14,3.40
2015,01,26,05,15,3.40
2015,01,26,05,16,3.40
2015,01,26,05,17,3.40
2015,01,26,05,18,3.40
2015,01,26,05,19,3.40
2015,01,26,05,20,3.40
2015,01,26,05,21,3.40
2015,01,26,05,22,3.40
2015,01,26,05,23,3.40
2015,01,26,05,24,3.40
2015,01,26,05,25,3.40
2015,01,26,05,26,3.40
2015,01,26,05,27,3.30
2015,01,26,05,28,3.30
2015,01,26,05,29,3.30
2015,01,26,05,30,3.30
2015,01,26,05,31,3.20
2015,01,26,05,32,3.20
2015,01,26,05,33,3.20
2015,01,26,05,34,3.20
2015,01,26,05,35,3.20
2015,01,26,05,36,3.20
2015,01,26,05,37,3.20
2015,01,26,05,38,3.20
2015,01,26,05,39,3.20
2015,01,26,05,40,3.20
2015,01,26,05,41,3.20
2015,01,26,05,42,3.20
2015,01,26,05,43,3.20
2015,01,26,05,44,3.20
2015,01,26,05,45,3.20
2015,01,26,05,46,3.20
2015,01,26,05,47,3.20
2015,01,26,05,48,3.20
2015,01,26,05,49,3.20
2015,01,26,05,50,3.20
2015,01,26,05,51,3.20
2015,01,26,05,52,3.20
2015,01,26,05,53,3.20
2015,01,26,05,54,3.20
2015,01,26,05,55,3.20
2015,01,26,05,56,3.20
2015,01,26,05,57,3.20
2015,01,26,05,58,3.20
2015,01,26,05,59,3.20
2015,01,26,06,00,3.20
2015,01,26,06,01,3.10
2015,01,26,06,02,3.10
2015,01,26,06,03,3.10
2015,01,26,06,04,3.00
2015,01,26,06,05,3.00
2015,01,26,06,06,3.00
2015,01,26,06,07,2.90
2015,01,26,06,08,2.90
2015,01,26,06,09,2.90
2015,01,26,06,10,2.90
2015,01,26,06,11,2.90
2015,01,26,06,12,2.90
2015,01,26,06,13,2.90
2015,01,26,06,14,2.90
2015,01,26,06,15,2.90
2015,01,26,06,16,2.90
2015,01,26,06,17,2.90
2015,01,26,06,18,2.90
2015,01,26,06,19,2.90
2015,01,26,06,20,2.90
2015,01,26,06,21,2.90
2015,01,26,06,22,2.90
2015,01,26,06,23,2.90
2015,01,26,06,24,2.90
2015,01,26,06,25,2.90
2015,01,26,06,26,2.90
2015,01,26,06,27,2.90
2015,01,26,06,28,2.90
2015,01,26,06,29,2.90
2015,01,26,06,30,2.90
2015,01,26,06,31,2.90
2015,01,26,06,32,2.90
2015,01,26,06,33,2.90
2015,01,26,06,34,2.90
2015,01,26,06,35,2.90
2015,01,26,06,36,2.90
2015,01,26,06,37,2.90
2015,01,26,06,38,2.90
2015,01,26,06,39,2.90
2015,01,26,06,40,2.90
2015,01,26,06,41,2.90
2015,01,26,06,42,2.90
2015,01,26,06,43,2.80
2015,01,26,06,44,2.80
2015,01,26,06,45,2.80
2015,01,26,06,46,2.80
2015,01,26,06,47,2.80
2015,01,26,06,48,2.70
2015,01,26,06,49,2.70
2015,01,26,06,50,2.70
2015,01,26,06,51,2.70
2015,01,26,06,52,2.70
2015,01,26,06,53,2.70
2015,01,26,06,54,2.70
2015,01,26,06,55,2.70
2015,01,26,06,56,2.70
2015,01,26,06,57,2.70
2015,01,26,06,58,2.70
2015,01,26,06,59,2.70
2015,01,26,07,00,2.70
2015,01,26,07,01,2.70
2015,01,26,07,02,2.70
2015,01,26,07,03,2.60
2015,01,26,07,04,2.60
2015,01,26,07,05,2.60
2015,01,26,07,06,2.60
2015,01,26,07,07,2.60
2015,01,26,07,08,2.60
2015,01,26,07,09,2.60
2015,01,26,07,10,2.60
2015,01,26,07,11,2.60
2015,01,26,07,12,2.60
2015,01,26,07,13,2.60
2015,01,26,07,14,2.50
2015,01,26,07,15,2.50
2015,01,26,07,16,2.50
2015,01,26,07,17,2.50
2015,01,26,07,18,2.50
2015,01,26,07,19,2.50
2015,01,26,07,20,2.50
2015,01,26,07,21,2.50
2015,01,26,07,22,2.40
2015,01,26,07,23,2.40
2015,01,26,07,24,2.40
2015,01,26,07,25,2.40
2015,01,26,07,26,2.40
2015,01,26,07,27,2.40
2015,01,26,07,28,2.40
2015,01,26,07,29,2.40
2015,01,26,07,30,2.40
2015,01,26,07,31,2.30
2015,01,26,07,32,2.30
2015,01,26,07,33,2.30
2015,01,26,07,34,2.30
2015,01,26,07,35,2.30
2015,01,26,07,36,2.30
2015,01,26,07,37,2.30
2015,01,26,07,38,2.30
2015,01,26,07,39,2.40
2015,01,26,07,40,2.40
2015,01,26,07,41,2.40
2015,01,26,07,42,2.30
2015,01,26,07,43,2.40
2015,01,26,07,44,2.40
2015,01,26,07,45,2.40
2015,01,26,07,46,2.40
2015,01,26,07,47,2.30
2015,01,26,07,48,2.30
2015,01,26,07,49,2.30
2015,01,26,07,50,2.30
2015,01,26,07,51,2.30
2015,01,26,07,52,2.30
2015,01,26,07,53,2.30
2015,01,26,07,54,2.30
2015,01,26,07,55,2.30
2015,01,26,07,56,2.30
2015,01,26,07,57,2.30
2015,01,26,07,58,2.30
2015,01,26,07,59,2.30
2015,01,26,08,00,2.30
2015,01,26,08,01,2.30
2015,01,26,08,02,2.30
2015,01,26,08,03,2.30
2015,01,26,08,04,2.30
2015,01,26,08,05,2.30
2015,01,26,08,06,2.30
2015,01,26,08,07,2.30
2015,01,26,08,08,2.30
2015,01,26,08,09,2.30
2015,01,26,08,10,2.30
2015,01,26,08,11,2.30
2015,01,26,08,12,2.30
2015,01,26,08,13,2.30
2015,01,26,08,14,2.30
2015,01,26,08,15,2.30
2015,01,26,08,16,2.30
2015,01,26,08,17,2.30
2015,01,26,08,18,2.30
2015,01,26,08,19,2.30
2015,01,26,08,20,2.30
2015,01,26,08,21,2.30
2015,01,26,08,22,2.30
2015,01,26,08,23,2.30
2015,01,26,08,24,2.30
2015,01,26,08,25,2.30
2015,01,26,08,26,2.30
2015,01,26,08,27,2.30
2015,01,26,08,28,2.30
2015,01,26,08,29,2.30
2015,01,26,08,30,2.40
2015,01,26,08,31,2.40
2015,01,26,08,32,2.40
2015,01,26,08,33,2.40
2015,01,26,08,34,2.40
2015,01,26,08,35,2.40
2015,01,26,08,36,2.40
2015,01,26,08,37,2.40
2015,01,26,08,38,2.40
2015,01,26,08,39,2.40
2015,01,26,08,40,2.40
2015,01,26,08,41,2.40
2015,01,26,08,42,2.40
2015,01,26,08,43,2.50
2015,01,26,08,44,2.50
2015,01,26,08,45,2.50
2015,01,26,08,46,2.50
2015,01,26,08,47,2.50
2015,01,26,08,48,2.60
2015,01,26,08,49,2.60
2015,01,26,08,50,2.60
2015,01,26,08,51,2.60
2015,01,26,08,52,2.60
2015,01,26,08,53,2.60
2015,01,26,08,54,2.60
2015,01,26,08,55,2.60
2015,01,26,08,56,2.60
2015,01,26,08,57,2.60
2015,01,26,08,58,2.60
2015,01,26,08,59,2.60
2015,01,26,09,00,2.70
2015,01,26,09,01,2.70
2015,01,26,09,02,2.70
2015,01,26,09,03,2.70
2015,01,26,09,04,2.80
2015,01,26,09,05,2.80
2015,01,26,09,06,2.80
2015,01,26,09,07,2.80
2015,01,26,09,08,2.80
2015,01,26,09,09,2.90
2015,01,26,09,10,2.90
2015,01,26,09,11,2.90
2015,01,26,09,12,2.90
2015,01,26,09,13,3.00
2015,01,26,09,14,3.00
2015,01,26,09,15,3.10
2015,01,26,09,16,3.10
2015,01,26,09,17,3.10
2015,01,26,09,18,3.10
2015,01,26,09,19,3.20
2015,01,26,09,20,3.20
2015,01,26,09,21,3.20
2015,01,26,09,22,3.20
2015,01,26,09,23,3.20
2015,01,26,09,24,3.20
2015,01,26,09,25,3.30
2015,01,26,09,26,3.30
2015,01,26,09,27,3.30
2015,01,26,09,28,3.30
2015,01,26,09,29,3.30
2015,01,26,09,30,3.30
2015,01,26,09,31,3.30
2015,01,26,09,32,3.30
2015,01,26,09,33,3.30
2015,01,26,09,34,3.40
2015,01,26,09,35,3.40
2015,01,26,09,36,3.40
2015,01,26,09,37,3.50
2015,01,26,09,38,3.50
2015,01,26,09,39,3.60
2015,01,26,09,40,3.60
2015,01,26,09,41,3.70
2015,01,26,09,42,3.80
2015,01,26,09,43,3.80
2015,01,26,09,44,3.90
2015,01,26,09,45,3.90
2015,01,26,09,46,4.00
2015,01,26,09,47,4.10
2015,01,26,09,48,4.10
2015,01,26,09,49,4.20
2015,01,26,09,50,4.30
2015,01,26,09,51,4.30
2015,01,26,09,52,4.40
2015,01,26,09,53,4.50
2015,01,26,09,54,4.50
2015,01,26,09,55,4.60
2015,01,26,09,56,4.60
2015,01,26,09,57,4.60
2015,01,26,09,58,4.70
2015,01,26,09,59,4.70
2015,01,26,10,00,4.70
2015,01,26,10,01,4.80
2015,01,26,10,02,4.80
2015,01,26,10,03,4.80
2015,01,26,10,04,4.90
2015,01,26,10,05,4.90
2015,01,26,10,06,4.90
2015,01,26,10,07,4.90
2015,01,26,10,08,4.90
2015,01,26,10,09,4.90
2015,01,26,10,10,5.00
2015,01,26,10,11,5.00
2015,01,26,10,12,5.00
2015,01,26,10,13,5.00
2015,01,26,10,14,5.00
2015,01,26,10,15,5.10
2015,01,26,10,16,5.10
2015,01,26,10,17,5.10
2015,01,26,10,18,5.10
2015,01,26,10,19,5.10
2015,01,26,10,20,5.10
2015,01,26,10,21,5.10
2015,01,26,10,22,5.10
2015,01,26,10,23,5.10
2015,01,26,10,24,5.10
2015,01,26,10,25,5.00
2015,01,26,10,26,5.00
2015,01,26,10,27,5.00
2015,01,26,10,28,5.00
2015,01,26,10,29,4.90
2015,01,26,10,30,4.90
2015,01,26,10,31,4.90
2015,01,26,10,32,4.90
2015,01,26,10,33,4.90
2015,01,26,10,34,4.90
2015,01,26,10,35,5.00
2015,01,26,10,36,5.00
2015,01,26,10,37,5.10
2015,01,26,10,38,5.10
2015,01,26,10,39,5.10
2015,01,26,10,40,5.10
2015,01,26,10,41,5.20
2015,01,26,10,42,5.20
2015,01,26,10,43,5.20
2015,01,26,10,44,5.30
2015,01,26,10,45,5.30
2015,01,26,10,46,5.30
2015,01,26,10,47,5.40
2015,01,26,10,48,5.40
2015,01,26,10,49,5.40
2015,01,26,10,50,5.50
2015,01,26,10,51,5.50
2015,01,26,10,52,5.50
2015,01,26,10,53,5.60
2015,01,26,10,54,5.60
2015,01,26,10,55,5.60
2015,01,26,10,56,5.60
2015,01,26,10,57,5.70
2015,01,26,10,58,5.70
2015,01,26,10,59,5.80
2015,01,26,11,00,5.80
2015,01,26,11,01,5.80
2015,01,26,11,02,5.90
2015,01,26,11,03,5.90
2015,01,26,11,04,6.00
2015,01,26,11,05,6.10
2015,01,26,11,06,6.10
2015,01,26,11,07,6.20
2015,01,26,11,08,6.30
2015,01,26,11,09,6.30
2015,01,26,11,10,6.40
2015,01,26,11,11,6.40
2015,01,26,11,12,6.50
2015,01,26,11,13,6.50
2015,01,26,11,14,6.60
2015,01,26,11,15,6.60
2015,01,26,11,16,6.70
2015,01,26,11,17,6.80
2015,01,26,11,18,6.80
2015,01,26,11,19,6.90
2015,01,26,11,20,7.00
2015,01,26,11,21,7.10
2015,01,26,11,22,7.20
2015,01,26,11,23,7.20
2015,01,26,11,24,7.20
2015,01,26,11,25,7.20
2015,01,26,11,26,7.20
2015,01,26,11,27,7.30
2015,01,26,11,28,7.30
2015,01,26,11,29,7.30
2015,01,26,11,30,7.40
2015,01,26,11,31,7.40
2015,01,26,11,32,7.40
2015,01,26,11,33,7.40
2015,01,26,11,34,7.50
2015,01,26,11,35,7.50
2015,01,26,11,36,7.50
2015,01,26,11,37,7.50
2015,01,26,11,38,7.50
2015,01,26,11,39,7.50
2015,01,26,11,40,7.50
2015,01,26,11,41,7.50
2015,01,26,11,42,7.50
2015,01,26,11,43,7.60
2015,01,26,11,44,7.60
2015,01,26,11,45,7.60
2015,01,26,11,46,7.60
2015,01,26,11,47,7.60
2015,01,26,11,48,7.60
2015,01,26,11,49,7.60
2015,01,26,11,50,7.60
2015,01,26,11,51,7.70
2015,01,26,11,52,7.70
2015,01,26,11,53,7.70
2015,01,26,11,54,7.70
2015,01,26,11,55,7.70
2015,01,26,11,56,7.70
2015,01,26,11,57,7.60
2015,01,26,11,58,7.60
2015,01,26,11,59,7.60
2015,01,26,12,00,7.60
2015,01,26,12,01,7.70
2015,01,26,12,02,7.70
2015,01,26,12,03,7.70
2015,01,26,12,04,7.70
2015,01,26,12,05,7.80
2015,01,26,12,06,7.80
2015,01,26,12,07,7.80
2015,01,26,12,08,7.80
2015,01,26,12,09,7.90
2015,01,26,12,10,7.90
2015,01,26,12,11,7.90
2015,01,26,12,12,8.00
2015,01,26,12,13,8.00
2015,01,26,12,14,8.10
2015,01,26,12,15,8.10
2015,01,26,12,16,8.10
2015,01,26,12,17,8.20
2015,01,26,12,18,8.20
2015,01,26,12,19,8.20
2015,01,26,12,20,8.30
2015,01,26,12,21,8.40
2015,01,26,12,22,8.40
2015,01,26,12,23,8.40
2015,01,26,12,24,8.50
2015,01,26,12,25,8.50
2015,01,26,12,26,8.50
2015,01,26,12,27,8.60
2015,01,26,12,28,8.60
2015,01,26,12,29,8.70
2015,01,26,12,30,8.70
2015,01,26,12,31,8.70
2015,01,26,12,32,8.70
2015,01,26,12,33,8.80
2015,01,26,12,34,8.80
2015,01,26,12,35,8.90
2015,01,26,12,36,8.90
2015,01,26,12,37,9.00
2015,01,26,12,38,9.10
2015,01,26,12,39,9.10
2015,01,26,12,40,9.10
2015,01,26,12,41,9.10
2015,01,26,12,42,9.10
2015,01,26,12,43,9.20
2015,01,26,12,44,9.20
2015,01,26,12,45,9.30
2015,01,26,12,46,9.40
2015,01,26,12,47,9.40
2015,01,26,12,48,9.40
2015,01,26,12,49,9.40
2015,01,26,12,50,9.40
2015,01,26,12,51,9.40
2015,01,26,12,52,9.40
2015,01,26,12,53,9.40
2015,01,26,12,54,9.40
2015,01,26,12,55,9.30
2015,01,26,12,56,9.30
2015,01,26,12,57,9.30
2015,01,26,12,58,9.30
2015,01,26,12,59,9.30
2015,01,26,13,00,9.40
2015,01,26,13,01,9.40
2015,01,26,13,02,9.50
2015,01,26,13,03,9.60
2015,01,26,13,04,9.60
2015,01,26,13,05,9.70
2015,01,26,13,06,9.80
2015,01,26,13,07,9.90
2015,01,26,13,08,10.00
2015,01,26,13,09,10.10
2015,01,26,13,10,10.10
2015,01,26,13,11,10.20
2015,01,26,13,12,10.20
2015,01,26,13,13,10.30
2015,01,26,13,14,10.30
2015,01,26,13,15,10.30
2015,01,26,13,16,10.30
2015,01,26,13,17,10.30
2015,01,26,13,18,10.30
2015,01,26,13,19,10.30
2015,01,26,13,20,10.30
2015,01,26,13,21,10.30
2015,01,26,13,22,10.40
2015,01,26,13,23,10.40
2015,01,26,13,24,10.50
2015,01,26,13,25,10.50
2015,01,26,13,26,10.50
2015,01,26,13,27,10.60
2015,01,26,13,28,10.60
2015,01,26,13,29,10.60
2015,01,26,13,30,10.60
2015,01,26,13,31,10.60
2015,01,26,13,32,10.60
2015,01,26,13,33,10.60
2015,01,26,13,34,10.60
2015,01,26,13,35,10.60
2015,01,26,13,36,10.60
2015,01,26,13,37,10.70
2015,01,26,13,38,10.70
2015,01,26,13,39,10.70
2015,01,26,13,40,10.80
2015,01,26,13,41,10.80
2015,01,26,13,42,10.90
2015,01,26,13,43,10.90
2015,01,26,13,44,10.90
2015,01,26,13,45,10.90
2015,01,26,13,46,11.00
2015,01,26,13,47,11.10
2015,01,26,13,48,11.20
2015,01,26,13,49,11.20
2015,01,26,13,50,11.20
2015,01,26,13,51,11.30
2015,01,26,13,52,11.30
2015,01,26,13,53,11.30
2015,01,26,13,54,11.30
2015,01,26,13,55,11.40
2015,01,26,13,56,11.40
2015,01,26,13,57,11.30
2015,01,26,13,58,11.30
2015,01,26,13,59,11.30
2015,01,26,14,00,11.40
2015,01,26,14,01,11.40
2015,01,26,14,02,11.50
2015,01,26,14,03,11.60
2015,01,26,14,04,11.70
2015,01,26,14,05,11.70
2015,01,26,14,06,11.80
2015,01,26,14,07,11.80
2015,01,26,14,08,11.90
2015,01,26,14,09,11.90
2015,01,26,14,10,12.00
2015,01,26,14,11,12.00
2015,01,26,14,12,12.10
2015,01,26,14,13,12.10
2015,01,26,14,14,12.20
2015,01,26,14,15,12.20
2015,01,26,14,16,12.20
2015,01,26,14,17,12.20
2015,01,26,14,18,12.20
2015,01,26,14,19,12.20
2015,01,26,14,20,12.20
2015,01,26,14,21,12.20
2015,01,26,14,22,12.20
2015,01,26,14,23,12.20
2015,01,26,14,24,12.20
2015,01,26,14,25,12.20
2015,01,26,14,26,12.10
2015,01,26,14,27,12.20
2015,01,26,14,28,12.20
2015,01,26,14,29,12.20
2015,01,26,14,30,12.20
2015,01,26,14,31,12.20
2015,01,26,14,32,12.20
2015,01,26,14,33,12.20
2015,01,26,14,34,12.20
2015,01,26,14,35,12.20
2015,01,26,14,36,12.20
2015,01,26,14,37,12.20
2015,01,26,14,38,12.20
2015,01,26,14,39,12.20
2015,01,26,14,40,12.20
2015,01,26,14,41,12.20
2015,01,26,14,42,12.30
2015,01,26,14,43,12.30
2015,01,26,14,44,12.30
2015,01,26,14,45,12.30
2015,01,26,14,46,12.30
2015,01,26,14,47,12.20
2015,01,26,14,48,12.20
2015,01,26,14,49,12.20
2015,01,26,14,50,12.20
2015,01,26,14,51,12.20
2015,01,26,14,52,12.20
2015,01,26,14,53,12.20
2015,01,26,14,54,12.10
2015,01,26,14,55,12.10
2015,01,26,14,56,12.10
2015,01,26,14,57,12.10
2015,01,26,14,58,12.10
2015,01,26,14,59,12.10
2015,01,26,15,00,12.10
2015,01,26,15,01,12.10
2015,01,26,15,02,12.10
2015,01,26,15,03,12.10
2015,01,26,15,04,12.00
2015,01,26,15,05,12.00
2015,01,26,15,06,11.90
2015,01,26,15,07,11.80
2015,01,26,15,08,11.80
2015,01,26,15,09,11.70
2015,01,26,15,10,11.60
2015,01,26,15,11,11.50
2015,01,26,15,12,11.50
2015,01,26,15,13,11.50
2015,01,26,15,14,11.40
2015,01,26,15,15,11.30
2015,01,26,15,16,11.30
2015,01,26,15,17,11.30
2015,01,26,15,18,11.30
2015,01,26,15,19,11.20
2015,01,26,15,20,11.20
2015,01,26,15,21,11.20
2015,01,26,15,22,11.20
2015,01,26,15,23,11.10
2015,01,26,15,24,11.10
2015,01,26,15,25,11.10
2015,01,26,15,26,11.10
2015,01,26,15,27,11.00
2015,01,26,15,28,11.00
2015,01,26,15,29,11.00
2015,01,26,15,30,11.00
2015,01,26,15,31,10.90
2015,01,26,15,32,10.90
2015,01,26,15,33,10.90
2015,01,26,15,34,10.90
2015,01,26,15,35,10.90
2015,01,26,15,36,10.90
2015,01,26,15,37,10.90
2015,01,26,15,38,10.90
2015,01,26,15,39,10.90
2015,01,26,15,40,10.90
2015,01,26,15,41,10.90
2015,01,26,15,42,10.90
2015,01,26,15,43,10.90
2015,01,26,15,44,10.90
2015,01,26,15,45,10.90
2015,01,26,15,46,10.90
2015,01,26,15,47,10.90
2015,01,26,15,48,10.90
2015,01,26,15,49,10.90
2015,01,26,15,50,10.90
2015,01,26,15,51,10.90
2015,01,26,15,52,10.90
2015,01,26,15,53,10.90
2015,01,26,15,54,10.90
2015,01,26,15,55,10.90
2015,01,26,15,56,10.90
2015,01,26,15,57,10.90
2015,01,26,15,58,10.90
2015,01,26,15,59,10.90
2015,01,26,16,00,10.90
2015,01,26,16,01,11.00
2015,01,26,16,02,11.00
2015,01,26,16,03,11.00
2015,01,26,16,04,11.00
2015,01,26,16,05,11.10
2015,01,26,16,06,11.10
2015,01,26,16,07,11.10
2015,01,26,16,08,11.10
2015,01,26,16,09,11.10
2015,01,26,16,10,11.10
2015,01,26,16,11,11.10
2015,01,26,16,12,11.10
2015,01,26,16,13,11.10
2015,01,26,16,14,11.20
2015,01,26,16,15,11.20
2015,01,26,16,16,11.20
2015,01,26,16,17,11.20
2015,01,26,16,18,11.20
2015,01,26,16,19,11.20
2015,01,26,16,20,11.20
2015,01,26,16,21,11.30
2015,01,26,16,22,11.30
2015,01,26,16,23,11.30
2015,01,26,16,24,11.30
2015,01,26,16,25,11.30
2015,01,26,16,26,11.30
2015,01,26,16,27,11.30
2015,01,26,16,28,11.30
2015,01,26,16,29,11.30
2015,01,26,16,30,11.30
2015,01,26,16,31,11.30
2015,01,26,16,32,11.30
2015,01,26,16,33,11.30
2015,01,26,16,34,11.30
2015,01,26,16,35,11.30
2015,01,26,16,36,11.30
2015,01,26,16,37,11.30
2015,01,26,16,38,11.30
2015,01,26,16,39,11.30
2015,01,26,16,40,11.30
2015,01,26,16,41,11.20
2015,01,26,16,42,11.20
2015,01,26,16,43,11.20
2015,01,26,16,44,11.20
2015,01,26,16,45,11.20
2015,01,26,16,46,11.20
2015,01,26,16,47,11.20
2015,01,26,16,48,11.20
2015,01,26,16,49,11.20
2015,01,26,16,50,11.10
2015,01,26,16,51,11.10
2015,01,26,16,52,11.10
2015,01,26,16,53,11.10
2015,01,26,16,54,11.10
2015,01,26,16,55,11.10
2015,01,26,16,56,11.10
2015,01,26,16,57,11.10
2015,01,26,16,58,11.10
2015,01,26,16,59,11.10
2015,01,26,17,00,11.10
2015,01,26,17,01,11.00
2015,01,26,17,02,11.00
2015,01,26,17,03,11.00
2015,01,26,17,04,11.00
2015,01,26,17,05,11.00
2015,01,26,17,06,11.00
2015,01,26,17,07,11.00
2015,01,26,17,08,10.90
2015,01,26,17,09,10.90
2015,01,26,17,10,10.90
2015,01,26,17,11,10.90
2015,01,26,17,12,10.90
2015,01,26,17,13,10.80
2015,01,26,17,14,10.80
2015,01,26,17,15,10.80
2015,01,26,17,16,10.80
2015,01,26,17,17,10.80
2015,01,26,17,18,10.80
2015,01,26,17,19,10.80
2015,01,26,17,20,10.80
2015,01,26,17,21,10.80
2015,01,26,17,22,10.70
2015,01,26,17,23,10.70
2015,01,26,17,24,10.70
2015,01,26,17,25,10.70
2015,01,26,17,26,10.70
2015,01,26,17,27,10.70
2015,01,26,17,28,10.70
2015,01,26,17,29,10.70
2015,01,26,17,30,10.70
2015,01,26,17,31,10.60
2015,01,26,17,32,10.60
2015,01,26,17,33,10.60
2015,01,26,17,34,10.60
2015,01,26,17,35,10.60
2015,01,26,17,36,10.60
2015,01,26,17,37,10.70
2015,01,26,17,38,10.70
2015,01,26,17,39,10.80
2015,01,26,17,40,10.80
2015,01,26,17,41,10.90
2015,01,26,17,42,10.90
2015,01,26,17,43,10.90
2015,01,26,17,44,11.00
2015,01,26,17,45,11.00
2015,01,26,17,46,11.10
2015,01,26,17,47,11.10
2015,01,26,17,48,11.10
2015,01,26,17,49,11.10
2015,01,26,17,50,11.10
2015,01,26,17,51,11.10
2015,01,26,17,52,11.10
2015,01,26,17,53,11.10